www.pogodaiklimat.ru

Погода и климат >> Архив погоды >> Вануату >> Lamap Malekula


ПОГОДА в Lamap Malekula

  • Прогноз погоды в Lamap Malekula
  • Монитор погоды в Lamap Malekula
  • Климат города

АРХИВ ПОГОДЫ в Lamap Malekula

Время (UTC), дата Ветер
(напр.,м/с)
 
Видим.   Явления Облачность Т
(С)
Тd
(С)
f
(%)
Тe
(С)
Тes
(С)
Комфортность P
(гПа)
Po
(гПа)
Тmin
(С)
Tmax
(С)
R
(мм)
R24
(мм)
S
(см)
06 20.05 В 4 20 км 1/1 750 м
[Cu med, cong]
+27.2 +22.5 76 +36 +36 очень
душно
1010.7 1011.0
09 20.05 штиль 0 20 км 9/5 660 м
[Cu med, cong Ac trans]
+26.7 +23.3 82 +36 +36 очень
душно
1012.7 1013.0
21 20.05 В 3 20 км 8/3 750 м
[Cu med, cong Ac trans]
+27.1 +22.6 76 +36 +37 очень
душно
1013.0 1013.0
00 21.05 СВ 2 20 км 4/4 750 м
[Cu med, cong Ci fib]
+28.7 +21.9 67 +37 +46 очень
душно
1012.9 1013.0 +23.3
03 21.05 В 3 20 км 1/1 750 м
[Cu med, cong]
+30.0 +23.7 69 +41 +48 опасность
перегрева
1011.1 1011.0
06 21.05 ЮВ 2 20 км 1/1 750 м
[Cu med, cong Ci fib]
+27.3 +22.8 76 +36 +36 очень
душно
1011.2 1011.0
09 21.05 штиль 0 20 км 1/1 750 м
[Cu hum]
+24.8 +22.6 88 +33 +33 очень
душно
1013.1 1013.0
21 21.05 ЮЗ 2 20 км 1/1 750 м
[Cu hum]
+24.3 +22.2 88 +32 +35 очень
душно
1013.2 1013.0
00 22.05 В 2 20 км 6/5 750 м
[Cu med, cong Cc]
+29.2 +23.8 73 +40 +47 очень
душно
1012.9 1013.0 +22.6
03 22.05 В 3 20 км 4/4 750 м
[Cu med, cong Ci fib]
+29.2 +23.0 69 +39 +44 очень
душно
1011.2 1011.0
06 22.05 Ю 2 20 км 1/1 750 м
[Cu med, cong Ci fib]
+26.9 +21.6 73 +34 +35 очень
душно
1010.9 1011.0
09 22.05 Ю 2 20 км 1/1 750 м
[Cu hum]
+24.4 +21.8 85 +31 +31 очень
душно
1012.9 1013.0
21 22.05 Ю 2 20 км 8/8 750 м
[Cu med, cong]
+25.6 +22.9 85 +34 +35 очень
душно
1012.8 1013.0
00 23.05 ЮВ 4 20 км {ливн. осадки} 9/9 660 м
[Cu med, cong]
+26.2 +22.9 82 +35 +36 очень
душно
1012.8 1013.0 +23.5 2
03 23.05 Ю 4 20 км {ливн. осадки} 9/9 600 м
[Cu med, cong]
+25.8 +22.6 83 +34 +35 очень
душно
1011.1 1011.0
06 23.05 ЮВ 3 20 км {ливн. осадки} 6/6 750 м
[Cu med, cong]
+26.0 +21.5 76 +33 +33 очень
душно
1011.8 1012.0 0.0
09 23.05 ЮВ 4 20 км 8/8 660 м
[Cu med, cong]
+25.5 +21.6 79 +33 +33 очень
душно
1012.8 1013.0
21 23.05 ЮВ 4 20 км 8/8 660 м
[Cu med, cong]
+24.9 +19.8 73 +30 +31 душно 1013.9 1014.0
00 24.05 ЮВ 4 20 км 6/6 750 м
[Cu med, cong]
+27.8 +21.1 67 +35 +38 очень
душно
1013.4 1013.0 14
03 24.05 ЮВ 5 20 км 8/8 750 м
[Cu med, cong]
+27.0 +22.0 74 +35 +36 очень
душно
1011.5 1012.0
06 24.05 ЮВ 3 20 км 8/8 660 м
[Cu med, cong]
+26.0 +20.7 73 +33 +33 очень
душно
1011.8 1012.0
09 24.05 ЮВ 3 20 км 1/1 750 м
[Cu hum]
+24.3 +17.1 64 +28 +28 душно 1013.9 1014.0
12 24.05 ЮВ 4 н/о н/о +23.8 +18.0 70 +28 +28 душно 1013.1 1010.6 +28.5
21 24.05 ЮВ 3 20 км 6/6 750 м
[Cu med, cong]
+25.0 +21.3 80 +32 +33 очень
душно
1014.1 1014.0
00 25.05 В 3 20 км 9/9 750 м
[Cu med, cong]
+27.0 +21.8 73 +35 +36 очень
душно
1013.6 1014.0
03 25.05 ЮВ 2 20 км 9/6 750 м
[Cu med, cong Ci sp]
+28.5 +22.2 69 +37 +41 очень
душно
1011.6 1012.0
06 25.05 штиль 0 20 км 9/9 660 м
[Cu med, cong]
+26.7 +21.2 72 +34 +34 очень
душно
1011.9 1012.0
09 25.05 ЮВ 4 20 км 9/9 660 м
[Cu med, cong]
+25.4 +21.8 80 +33 +33 очень
душно
1013.6 1014.0
12 25.05 штиль 0 20 км 9/9 660 м
[Cu med, cong]
+24.7 +21.4 82 +31 +31 очень
душно
1014.1 1014.0
21 25.05 ЮВ 3 20 км 9/5 660 м
[Cu med, cong Ac As]
+26.6 +22.2 77 +35 +35 очень
душно
1014.6 1015.0
00 26.05 ЮВ 4 20 км 10/5 660 м
[Cu med, cong As op]
+26.7 +21.5 73 +34 +35 очень
душно
1014.0 1014.0 +24.3
03 26.05 ЮВ 5 20 км 10/6 660 м
[Cu med, cong As op]
+25.6 +21.3 77 +32 +33 очень
душно
1012.3 1012.0
06 26.05 ЮВ 5 20 км {ливн. осадки} 10/10 600 м
[Cu med, cong]
+24.7 +20.8 79 +31 +31 очень
душно
1013.1 1013.0 0.0
21 26.05 Ю 3 20 км 10/10 600 м
[Cu Sc]
+23.2 +19.8 81 +30 +30 очень
душно
1013.7 1014.0
00 27.05 Ю 4 20 км слабый ливневой дождь 10/10 600 м
[Cu Sc]
+24.3 +21.9 86 +31 +31 очень
душно
1013.4 1013.0 +22.4 3
03 27.05 Ю 4 20 км {ливн. осадки} 10/5 600 м
[Cu med, cong Ac As]
+23.4 +20.9 86 +31 +32 очень
душно
1010.5 1011.0

 

Местоположение метеостанции Lamap Malekula (Вануату): широта -16.41 долгота 167.80 высота над уровнем моря 26 м.

В архиве по умолчанию представлена погода в Lamap Malekula за последнюю неделю. Архивные данные за месяц целиком и за предыдущие месяцы, начиная с января 2011 года, Вы можете получить, выбрав интересующий диапазон дат из раскрывающегося списка и нажав кнопку "Ввод!".


*Определитесь, кто Вы:
робот инопланетянин человек

Внимание! Время в таблицах - всемирное. Для получения местного времени необходимо прибавить поправку, которая в Lamap Malekula равна 11 ч.

Смотрите также архив погоды в соседних городах и на ближайших метеорологических станциях:

Погода в Pekoa Airport Santo (Вануату) (118 км)
Погода в Saratamata (Вануату) (129 км)
Погода в Bauerfield Efate (Вануату) (153 км)
Погода в Erromanga (Вануату) (285 км)
Погода в Sola Vanua Lava (Вануату) (286 км)
Погода в Linua Airport (Вануату) (366 км)
Погода в Whitegrass Tanna (Вануату) (370 км)
Погода в Anelghowhat (Вануату) (473 км)
Погода в Ouanaham Ile Lifou (Новая Каледония) (488 км)
Погода в Ouloup Ile Ouvea (Новая Каледония) (489 км)

Пояснения к столбцам:

Ветер - указаны скорость ветра в м/с - средняя за 10 мин, порывы в срок и между сроками (в фигурных скобках) и направление, откуда дует ветер: С - северный, СВ - северо-восточный, В - восточный, ЮВ - юго-восточный, Ю - южный, ЮЗ - юго-западный, З - западный, СЗ - северо-западный.
Видимость - горизонтальная дальность видимости в метрах или километрах. При видимости от 1 до 10 км при отсутствии осадков обычно наблюдается дымка, при ухудшении видимости до 1 км и менее - туман. В сухую погоду видимость может ухудшаться дымом, пылью или мглою.
Явления - указаны атмосферные явления, наблюдавшиеся в срок или в последний час перед сроком; фигурными скобками обозначены явления, наблюдавшиеся между сроками (за 1-3 часа до срока); квадратными скобками обозначены град или гололедные отложения с указанием их диаметра в мм.
Облачность - указаны через наклонную черту общая и нижняя облачность в баллах и высота нижней границы облаков в метрах; квадратными скобками обозначены формы облаков: Ci - перистые, Cs - перисто-слоистые, Cc - перисто-кучевые, Ac - высококучевые, As - высокослоистые, Sc - слоисто-кучевые, Ns - слоисто-дождевые, Cu - кучевые, Cb - кучево-дождевые. Подробнее классификацию облаков см. в Атласе облаков (PDF).
T - Температура воздуха - температура, измеренная на высоте 2 м над землей.
Td - Температура точки росы - температура, при понижении до которой содержащийся в воздухе водяной пар достигнет насыщения.
f - Относительная влажность воздуха - влажноcть воздуха, измеренная на высоте 2 м над землей.
Te - Эффективная температура - температура, которую ощущает одетый по сезону человек в тени. Характеристика душности погоды. При расчете учитывается влияние влажности воздуха и скорости ветра на теплоощущения человека.
Tes - Эффективная температура на солнце - температура, которую ощущает человек, с поправкой на солнечный нагрев. Характеристика знойности погоды. Зависит от высоты солнца над горизонтом, облачности и скорости ветра. Ночью, в пасмурную погоду, а также при ветре 12 м/с и более поправка равна нулю.
P - Атмосферное давление - приведенное к уровню моря атмосферное давление.
Po - Атмосферное давление - измеренное на уровне метеостанции атмосферное давление.
Tmin - Минимальная температура - минимум температуры воздуха на высоте 2 м над землей.
Tmax - Максимальная температура - максимум температуры воздуха на высоте 2 м над землей.
R - Количество осадков - Количество выпавших осадков за период времени, мм. При наведении курсора мыши на число - период времени, за который выпало указанное количество осадков.
R24 - Количество осадков - Количество выпавших осадков за 24 часа, мм.
S - Снежный покров - Высота снежного покрова, см. При наведении курсора мыши на число - состояние снежного покрова и степень покрытия местности в баллах.